Regional Weather Roundup
Issued by NWS

Home | Current Version | Previous Version | Text Only | Print | Product List | Glossary Off
Versions: 1 2 3 4 5 6 7 8 9 10 11 12 13 14 15 16 17 18 19 20 21 22 23 24 25 26 27 28 29 30 31 32 33 34 35 36 37 38 39 40 41 42 43 44 45 46 47 48 49 50

759
ASUS43 KDTX 281010
RWRMI
MICHIGAN HOURLY REGIONAL WEATHER ROUNDUP
NATIONAL WEATHER SERVICE DETROIT/PONTIAC MI
600 AM EDT FRI APR 28 2017

NOTE: "FAIR" INDICATES FEW OR NO CLOUDS BELOW 12,000 FEET WITH NO
SIGNIFICANT WEATHER AND/OR OBSTRUCTION TO VISIBILITY.

MIZ047>049-052>055-059>063-066>070-074>076-081>083-281100-
SOUTHEAST LOWER MICHIGAN

CITY           SKY/WX    TMP DP  RH WIND       PRES   REMARKS
ADRIAN         PTCLDY    42  38  85 SW3       29.95R
ALMA           CLOUDY    45  35  70 SW13G18   29.89R
ANN ARBOR      PTCLDY    42  38  85 S5        29.94R
BAD AXE        CLOUDY    45  36  70 SW13      29.88R
CARO           CLOUDY    45  34  66 SW10G22   29.90R
DETROIT CITY   CLEAR     47  37  68 W5        29.95R
DETROIT        MOCLDY    46  38  73 SW7       29.96R
FLINT          CLOUDY    46  35  65 W12G24    29.91R
GROSSE ILE     CLEAR     46  38  74 SW6       29.96R
HILLSDALE      CLEAR     41  36  81 S5        29.93R
HOWELL         CLOUDY    44  35  69 SW6       29.92R

CITY           SKY/WX    TMP DP  RH WIND       PRES   REMARKS
JACKSON        MOCLDY    43  37  79 S3        29.92R
LAMBERTVILLE   CLEAR     46  38  74 SW3       29.95S
LANSING        CLOUDY    45  33  63 SW10      29.92R
LAPEER         CLOUDY    47  34  62 W15G23    29.91R
MASON          CLOUDY    45  36  71 SW5       29.92R
MONROE         PTCLDY    44  38  78 S3        29.95R
MT. CLEMENS    PTCLDY    48  37  66 W9        29.92R
PONTIAC        CLOUDY    46  35  65 W15       29.91R
PORT HOPE        N/A     46  36  68 SW9G17    29.85R
PORT HURON     CLOUDY    48  36  61 SW10G17   29.92R
TRI CITIES     CLOUDY    45  35  68 SW13      29.89R
MIDLAND        CLOUDY    45  32  60 SW13G21   29.87R
TROY           MOCLDY    48  33  56 W8G16     29.95R
SAGINAW HB     MOCLDY    45  32  61 SW16      29.89R
$$
MIZ043>046-050>051-056>058-064>065-071>073-077>080-281100-
SOUTHWEST LOWER MICHIGAN

CITY           SKY/WX    TMP DP  RH WIND       PRES   REMARKS
BATTLE CREEK   PTCLDY    41  36  82 CALM      29.91S
BENTON HARBOR  CLEAR     37  35  92 NE3       29.87F
BIG RAPIDS     CLOUDY    40  32  72 W10G16    29.84S WCI  34
COLDWATER      CLEAR     41  37  86 CALM      29.92S
FREMONT        CLOUDY    40  33  76 W9        29.87R WCI  34
HOLLAND        CLOUDY    45  36  70 W10       29.89S
GRAND RAPIDS   CLOUDY    44  37  76 SW13      29.89R
IONIA          CLOUDY    45  35  68 SW10      29.89R
KALAMAZOO      CLEAR     42  35  76 CALM      29.91S
LUDINGTON      CLOUDY    40  34  79 W12       29.85R WCI  32
MARSHALL       PTCLDY    41  38  87 CALM      29.91S
MOUNT PLEASANT CLOUDY    43  33  68 SW6       29.86R
MUSKEGON       CLOUDY    41  33  73 W13       29.89R
SOUTH HAVEN    CLOUDY    42  38  88 CALM      29.89F
$$
MIZ016>042-281100-
NORTHERN LOWER MICHIGAN

CITY           SKY/WX    TMP DP  RH WIND       PRES   REMARKS
ALPENA         CLOUDY    43  37  79 SW13      29.81R
BEAVER ISLAND  CLOUDY    36  31  83 W16       29.78R WCI  26
BELLAIRE       MIX PCPN  37  35  91 W5        29.82R WCI  33
CADILLAC       RAIN      37  36  93 W6        29.81R WCI  33
CHARLEVOIX     CLOUDY    36  36 100 W13       29.82R FOG     WCI  27
FRANKFORT      CLOUDY    38  34  84 W9        29.82R WCI  32
GAYLORD        LGT RAIN  38  33  82 SW14      29.78R WCI  30
GRAYLING       LGT RAIN  37  35  90 SW10G18   29.82R WCI  30
HARBOR SPRINGS CLOUDY    35  35  97 W10G17    29.79R WCI  28
HOUGHTON LAKE  CLOUDY    41  33  73 SW17G26   29.82R
MANISTEE       CLOUDY    40  34  79 SW13      29.84R WCI  32
OSCODA         CLOUDY    44  33  64 SW17G26   29.84R
PELLSTON       CLOUDY    36  32  85 W5        29.79R FOG     WCI  32
ROGERS CITY    DRIZZLE   41  37  84 CALM      29.80R
TRAVERSE CITY  CLOUDY    40  36  86 W8        29.81R WCI  34
$$
MIZ007>008-015-281100-
EASTERN UPPER MICHIGAN

CITY           SKY/WX    TMP DP  RH WIND       PRES   REMARKS
KINROSS        CLOUDY    34  32  92 SW5       29.75R WCI  30
MACKINAC ISLAN CLOUDY    36  32  84 SW14G23   29.77R WCI  27
NEWBERRY       CLOUDY    31  31  98 W5        29.73S FOG     WCI  26
S. S. MARIE    CLOUDY    36  31  82 SW6       29.74R WCI  31
MUNISING         N/A     31  29  92 S5        29.74R WCI  26
$$
MIZ004>006-011>014-085-281100-
CENTRAL UPPER MICHIGAN

CITY           SKY/WX    TMP DP  RH WIND       PRES   REMARKS
MANISTIQUE     CLOUDY    32  31  97 W5        29.77R WCI  27
ESCANABA       CLOUDY    31  30  96 SW6       29.79R WCI  25
MENOMINEE      CLOUDY    34  25  69 W14G22    29.82R WCI  25
SAWYER-GWINN   CLOUDY    29  26  89 SW9       29.72R WCI  20
$$
MIZ001>003-009>011-084-281100-
WESTERN UPPER MICHIGAN

CITY           SKY/WX    TMP DP  RH WIND       PRES   REMARKS
IRON MOUNTAIN  CLOUDY    30  23  75 SW7       29.73R WCI  23
HOUGHTON       FLURRIES  30  25  81 SW10      29.64R WCI  21
COPPER HARBOR    N/A     31  27  85 VRB6      29.64R WCI  25
IRONWOOD       CLOUDY    27  25  92 W14       29.72R WCI  16
$$

ABBREVIATIONS USED IN REMARKS
   TC - TEMPERATURE IN CELSIUS
  WCI - WIND CHILL INDEX
   HX - HEAT INDEX
  VSB - VISIBILITY





USA.gov is the U.S. government's official web portal to all federal, state and local government web resources and services.